| time (UTC) | temp C | wind direction | speed KPH | gust KPH | rain 1hr cm | rain 24hr cm | rain mn cm | humidity % | barometer mb |
| 20260508005217 | 11 | 207 | 6.4 | 11.3 | 0.00 | 0.00 | 0.00 | 65 | |
| 20260508004716 | 10 | 201 | 4.8 | 9.7 | 0.00 | 0.00 | 0.00 | 64 | |
| 20260508004216 | 11 | 198 | 3.2 | 9.7 | 0.00 | 0.00 | 0.00 | 64 | |
| 20260508003715 | 11 | 228 | 4.8 | 9.7 | 0.00 | 0.00 | 0.00 | 64 | |
| 20260508003215 | 10 | 242 | 4.8 | 8.0 | 0.00 | 0.00 | 0.00 | 64 | |
| 20260508002715 | 10 | 243 | 4.8 | 9.7 | 0.00 | 0.00 | 0.00 | 64 | |
| 20260508002214 | 11 | 224 | 1.6 | 8.0 | 0.00 | 0.00 | 0.00 | 63 | |
| 20260508001714 | 11 | 256 | 1.6 | 6.4 | 0.00 | 0.00 | 0.00 | 63 | |
| 20260508001214 | 11 | 218 | 1.6 | 8.0 | 0.00 | 0.00 | 0.00 | 64 | |
| 20260508000714 | 11 | 210 | 1.6 | 8.0 | 0.00 | 0.00 | 0.00 | 64 | |
| 20260508000213 | 11 | 235 | 4.8 | 8.0 | 0.00 | 0.00 | 0.00 | 64 | |
| 20260507235713 | 11 | 211 | 3.2 | 8.0 | 0.00 | 0.00 | 0.00 | 64 | |
| 20260507235213 | 11 | 200 | 3.2 | 9.7 | 0.00 | 0.00 | 0.00 | 64 | |
| 20260507234712 | 11 | 226 | 3.2 | 8.0 | 0.00 | 0.00 | 0.00 | 63 | |
| 20260507234212 | 11 | 203 | 6.4 | 11.3 | 0.00 | 0.00 | 0.00 | 63 | |
| 20260507233712 | 11 | 195 | 4.8 | 9.7 | 0.00 | 0.00 | 0.00 | 63 | |
| 20260507233212 | 11 | 187 | 6.4 | 11.3 | 0.00 | 0.00 | 0.00 | 63 | |
| 20260507232711 | 11 | 203 | 4.8 | 11.3 | 0.00 | 0.00 | 0.00 | 63 | |
| 20260507232211 | 11 | 200 | 6.4 | 12.9 | 0.00 | 0.00 | 0.00 | 63 | |
| 20260507231711 | 11 | 214 | 4.8 | 8.0 | 0.00 | 0.00 | 0.00 | 64 | |
| 20260507231211 | 11 | 201 | 4.8 | 9.7 | 0.00 | 0.00 | 0.00 | 64 | |
| 20260507230209 | 11 | 217 | 4.8 | 8.0 | 0.00 | 0.00 | 0.00 | 62 | |
| 20260507225209 | 11 | 243 | 3.2 | 8.0 | 0.00 | 0.00 | 0.00 | 61 | |
| 20260507224707 | 11 | 236 | 3.2 | 12.9 | 0.00 | 0.00 | 0.00 | 61 | |
| 20260507224207 | 11 | 239 | 3.2 | 11.3 | 0.00 | 0.00 | 0.00 | 60 | |
| 20260507223707 | 11 | 224 | 1.6 | 9.7 | 0.00 | 0.00 | 0.00 | 60 | |
| 20260507223206 | 11 | 252 | 3.2 | 11.3 | 0.00 | 0.00 | 0.00 | 60 | |
| 20260507222706 | 11 | 271 | 1.6 | 8.0 | 0.00 | 0.00 | 0.00 | 59 | |
| 20260507222206 | 11 | 256 | 3.2 | 9.7 | 0.00 | 0.00 | 0.00 | 59 | |
| 20260507221704 | 11 | 215 | 3.2 | 11.3 | 0.00 | 0.00 | 0.00 | 59 | |
| 20260507221204 | 11 | 266 | 3.2 | 11.3 | 0.00 | 0.00 | 0.00 | 59 | |
| 20260507220704 | 11 | 256 | 3.2 | 8.0 | 0.00 | 0.00 | 0.00 | 59 | |
| 20260507220203 | 11 | 271 | 3.2 | 11.3 | 0.00 | 0.00 | 0.00 | 59 | |
| 20260507215703 | 11 | 253 | 3.2 | 11.3 | 0.00 | 0.00 | 0.00 | 59 | |
| 20260507214702 | 12 | 236 | 3.2 | 12.9 | 0.00 | 0.00 | 0.00 | 59 | |
| 20260507214202 | 12 | 222 | 3.2 | 8.0 | 0.00 | 0.00 | 0.00 | 59 | |
| 20260507213702 | 12 | 204 | 4.8 | 12.9 | 0.00 | 0.00 | 0.00 | 59 | |
| 20260507213202 | 12 | 221 | 4.8 | 12.9 | 0.00 | 0.00 | 0.00 | 59 | |
| 20260507212701 | 12 | 194 | 4.8 | 9.7 | 0.00 | 0.00 | 0.00 | 59 | |
| 20260507212201 | 12 | 242 | 3.2 | 9.7 | 0.00 | 0.00 | 0.00 | 59 | |
| 20260507211701 | 12 | 231 | 3.2 | 9.7 | 0.00 | 0.00 | 0.00 | 59 | |
| 20260507211200 | 12 | 249 | 3.2 | 8.0 | 0.00 | 0.00 | 0.00 | 58 | |
| 20260507210700 | 13 | 195 | 1.6 | 9.7 | 0.00 | 0.00 | 0.00 | 57 | |
| 20260507210200 | 13 | 224 | 3.2 | 8.0 | 0.00 | 0.00 | 0.00 | 57 | |
| 20260507205659 | 13 | 214 | 1.6 | 6.4 | 0.00 | 0.00 | 0.00 | 56 | |
| 20260507205159 | 13 | 212 | 1.6 | 6.4 | 0.00 | 0.00 | 0.00 | 56 | |
| 20260507204659 | 13 | 218 | 0.0 | 3.2 | 0.00 | 0.00 | 0.00 | 55 | |
| 20260507203658 | 13 | 300 | 0.0 | 0.0 | 0.00 | 0.00 | 0.00 | 55 | |
| 20260507203157 | 13 | 0 | 0.0 | 0.0 | 0.00 | 0.00 | 0.00 | 55 | |
| 20260507202657 | 13 | 0 | 0.0 | 0.0 | 0.00 | 0.00 | 0.00 | 55 | |
| 20260507202157 | 13 | 0 | 0.0 | 0.0 | 0.00 | 0.00 | 0.00 | 55 | |
| 20260507201656 | 14 | 0 | 0.0 | 0.0 | 0.00 | 0.00 | 0.00 | 56 | |
| 20260507201156 | 14 | 0 | 0.0 | 0.0 | 0.00 | 0.00 | 0.00 | 55 | |
| 20260507200656 | 14 | 0 | 0.0 | 0.0 | 0.00 | 0.00 | 0.00 | 55 | |
| 20260507200155 | 13 | 0 | 0.0 | 0.0 | 0.00 | 0.00 | 0.00 | 55 | |
| 20260507195655 | 14 | 0 | 0.0 | 0.0 | 0.00 | 0.00 | 0.00 | 54 | |
| 20260507195154 | 13 | 0 | 0.0 | 0.0 | 0.00 | 0.00 | 0.00 | 54 | |
| 20260507194653 | 14 | 0 | 0.0 | 0.0 | 0.00 | 0.00 | 0.00 | 53 | |
| 20260507194153 | 14 | 0 | 0.0 | 0.0 | 0.00 | 0.00 | 0.00 | 52 | |
| 20260507193653 | 14 | 0 | 0.0 | 0.0 | 0.00 | 0.00 | 0.00 | 51 | |
| 20260507193152 | 14 | 0 | 0.0 | 0.0 | 0.00 | 0.00 | 0.00 | 51 | |
| 20260507192652 | 14 | 0 | 0.0 | 0.0 | 0.00 | 0.00 | 0.00 | 50 | |
| 20260507191652 | 14 | 0 | 0.0 | 0.0 | 0.00 | 0.00 | 0.00 | 50 | |
| 20260507190650 | 14 | 0 | 0.0 | 0.0 | 0.00 | 0.00 | 0.00 | 49 | |
| 20260507190150 | 15 | 0 | 0.0 | 0.0 | 0.00 | 0.00 | 0.00 | 49 | |
| 20260507185650 | 15 | 277 | 0.0 | 3.2 | 0.00 | 0.00 | 0.00 | 48 | |
| 20260507185150 | 15 | 256 | 1.6 | 3.2 | 0.00 | 0.00 | 0.00 | 48 | |
| 20260507184649 | 15 | 0 | 0.0 | 0.0 | 0.00 | 0.00 | 0.00 | 47 | |
| 20260507184149 | 15 | 290 | 1.6 | 4.8 | 0.00 | 0.00 | 0.00 | 46 | |
| 20260507183649 | 15 | 294 | 1.6 | 6.4 | 0.00 | 0.00 | 0.00 | 45 | |
| 20260507183149 | 15 | 298 | 3.2 | 6.4 | 0.00 | 0.00 | 0.00 | 45 | |
| 20260507182648 | 15 | 274 | 1.6 | 6.4 | 0.00 | 0.00 | 0.00 | 45 | |
| 20260507182148 | 15 | 294 | 1.6 | 4.8 | 0.00 | 0.00 | 0.00 | 45 | |
| 20260507181648 | 15 | 274 | 1.6 | 6.4 | 0.00 | 0.00 | 0.00 | 45 | |
| 20260507181146 | 15 | 304 | 3.2 | 8.0 | 0.00 | 0.00 | 0.00 | 45 | |
| 20260507180648 | 15 | 291 | 1.6 | 8.0 | 0.00 | 0.00 | 0.00 | 45 | |
| 20260507180146 | 15 | 277 | 1.6 | 6.4 | 0.00 | 0.00 | 0.00 | 45 | |
| 20260507175646 | 15 | 290 | 3.2 | 6.4 | 0.00 | 0.00 | 0.00 | 45 | |
| 20260507175145 | 15 | 290 | 1.6 | 6.4 | 0.00 | 0.00 | 0.00 | 45 | |
| 20260507174645 | 15 | 288 | 4.8 | 9.7 | 0.00 | 0.00 | 0.00 | 45 | |
| 20260507174145 | 16 | 300 | 3.2 | 9.7 | 0.00 | 0.00 | 0.00 | 44 | |
| 20260507173644 | 16 | 290 | 1.6 | 9.7 | 0.00 | 0.00 | 0.00 | 45 | |
| 20260507173144 | 16 | 274 | 1.6 | 8.0 | 0.00 | 0.00 | 0.00 | 45 | |
| 20260507172644 | 16 | 271 | 3.2 | 6.4 | 0.00 | 0.00 | 0.00 | 45 | |
| 20260507172144 | 15 | 295 | 3.2 | 6.4 | 0.00 | 0.00 | 0.00 | 45 | |
| 20260507171643 | 16 | 300 | 4.8 | 11.3 | 0.00 | 0.00 | 0.00 | 44 | |
| 20260507171143 | 16 | 271 | 3.2 | 11.3 | 0.00 | 0.00 | 0.00 | 44 | |
| 20260507170643 | 16 | 294 | 3.2 | 6.4 | 0.00 | 0.00 | 0.00 | 44 | |
| 20260507170142 | 16 | 280 | 3.2 | 9.7 | 0.00 | 0.00 | 0.00 | 44 | |
| 20260507165642 | 16 | 287 | 3.2 | 8.0 | 0.00 | 0.00 | 0.00 | 44 | |
| 20260507165142 | 16 | 287 | 4.8 | 11.3 | 0.00 | 0.00 | 0.00 | 44 | |
| 20260507164642 | 16 | 278 | 4.8 | 11.3 | 0.00 | 0.00 | 0.00 | 43 | |
| 20260507164141 | 16 | 284 | 3.2 | 9.7 | 0.00 | 0.00 | 0.00 | 44 | |
| 20260507163641 | 16 | 278 | 4.8 | 11.3 | 0.00 | 0.00 | 0.00 | 45 | |
| 20260507162140 | 16 | 225 | 3.2 | 9.7 | 0.00 | 0.00 | 0.00 | 46 | |
| 20260507161640 | 16 | 290 | 3.2 | 9.7 | 0.00 | 0.00 | 0.00 | 46 | |
| 20260507161140 | 16 | 274 | 4.8 | 9.7 | 0.00 | 0.00 | 0.00 | 46 | |
| 20260507160639 | 16 | 274 | 1.6 | 8.0 | 0.00 | 0.00 | 0.00 | 45 | |
| 20260507160139 | 16 | 283 | 3.2 | 11.3 | 0.00 | 0.00 | 0.00 | 44 | |
| 20260507155639 | 16 | 277 | 4.8 | 11.3 | 0.00 | 0.00 | 0.00 | 45 | |
| 20260507155138 | 16 | 281 | 4.8 | 12.9 | 0.00 | 0.00 | 0.00 | 45 | |
| 20260507154638 | 16 | 288 | 6.4 | 14.5 | 0.00 | 0.00 | 0.00 | 45 | |
| 20260507154138 | 16 | 314 | 3.2 | 9.7 | 0.00 | 0.00 | 0.00 | 44 | |
| 20260507153638 | 16 | 284 | 4.8 | 9.7 | 0.00 | 0.00 | 0.00 | 43 | |
| 20260507153137 | 16 | 285 | 1.6 | 8.0 | 0.00 | 0.00 | 0.00 | 41 | |
| 20260507152137 | 16 | 305 | 3.2 | 9.7 | 0.00 | 0.00 | 0.00 | 40 | |
| 20260507151636 | 16 | 271 | 1.6 | 6.4 | 0.00 | 0.00 | 0.00 | 39 | |
| 20260507151136 | 16 | 309 | 0.0 | 0.0 | 0.00 | 0.00 | 0.00 | 39 | |
| 20260507150636 | 16 | 0 | 0.0 | 0.0 | 0.00 | 0.00 | 0.00 | 39 | |
| 20260507150136 | 17 | 0 | 0.0 | 0.0 | 0.00 | 0.00 | 0.00 | 39 | |
| 20260507145135 | 16 | 194 | 1.6 | 9.7 | 0.00 | 0.00 | 0.00 | 39 | |
| 20260507144635 | 16 | 207 | 1.6 | 11.3 | 0.00 | 0.00 | 0.00 | 39 | |
| 20260507144135 | 15 | 203 | 4.8 | 9.7 | 0.00 | 0.00 | 0.00 | 39 | |
| 20260507143134 | 16 | 217 | 3.2 | 8.0 | 0.00 | 0.00 | 0.00 | 38 | |
| 20260507142634 | 16 | 252 | 3.2 | 11.3 | 0.00 | 0.00 | 0.00 | 38 | |
| 20260507142133 | 16 | 200 | 1.6 | 4.8 | 0.00 | 0.00 | 0.00 | 38 | |
| 20260507141633 | 16 | 248 | 4.8 | 11.3 | 0.00 | 0.00 | 0.00 | 37 | |
| 20260507141133 | 16 | 198 | 3.2 | 8.0 | 0.00 | 0.00 | 0.00 | 38 | |
| 20260507140633 | 16 | 200 | 3.2 | 8.0 | 0.00 | 0.00 | 0.00 | 37 | |
| 20260507140132 | 17 | 226 | 3.2 | 9.7 | 0.00 | 0.00 | 0.00 | 35 | |
| 20260507135633 | 17 | 255 | 3.2 | 12.9 | 0.00 | 0.00 | 0.00 | 35 | |
| 20260507134631 | 17 | 198 | 1.6 | 8.0 | 0.00 | 0.00 | 0.00 | 33 | |
| 20260507133631 | 17 | 190 | 3.2 | 11.3 | 0.00 | 0.00 | 0.00 | 35 | |
| 20260507133131 | 17 | 212 | 1.6 | 6.4 | 0.00 | 0.00 | 0.00 | 35 | |
| 20260507132630 | 17 | 201 | 1.6 | 9.7 | 0.00 | 0.00 | 0.00 | 35 | |
| 20260507132130 | 16 | 205 | 1.6 | 8.0 | 0.00 | 0.00 | 0.00 | 36 | |
| 20260507131630 | 16 | 266 | 4.8 | 9.7 | 0.00 | 0.00 | 0.00 | 36 | |
| 20260507131129 | 16 | 198 | 3.2 | 8.0 | 0.00 | 0.00 | 0.00 | 36 | |
| 20260507130629 | 16 | 253 | 4.8 | 11.3 | 0.00 | 0.00 | 0.00 | 37 | |
| 20260507130129 | 16 | 248 | 1.6 | 8.0 | 0.00 | 0.00 | 0.00 | 37 | |
| 20260507125629 | 16 | 287 | 0.0 | 4.8 | 0.00 | 0.00 | 0.00 | 36 | |
| 20260507125129 | 16 | 233 | 3.2 | 6.4 | 0.00 | 0.00 | 0.00 | 35 | |
| 20260507124628 | 17 | 243 | 0.0 | 4.8 | 0.00 | 0.00 | 0.00 | 34 | |
| 20260507124128 | 17 | 262 | 1.6 | 8.0 | 0.00 | 0.00 | 0.00 | 35 | |
| 20260507123627 | 17 | 226 | 3.2 | 11.3 | 0.00 | 0.00 | 0.00 | 33 | |
| 20260507123127 | 18 | 270 | 3.2 | 9.7 | 0.00 | 0.00 | 0.00 | 31 | |
| 20260507122627 | 18 | 245 | 1.6 | 11.3 | 0.00 | 0.00 | 0.00 | 31 | |
| 20260507122127 | 18 | 278 | 3.2 | 9.7 | 0.00 | 0.00 | 0.00 | 32 | |
| 20260507121626 | 18 | 207 | 6.4 | 12.9 | 0.00 | 0.00 | 0.00 | 35 | |
| 20260507121126 | 18 | 215 | 4.8 | 14.5 | 0.00 | 0.00 | 0.00 | 35 | |
| 20260507120626 | 18 | 224 | 3.2 | 9.7 | 0.00 | 0.00 | 0.00 | 31 | |
| 20260507120125 | 17 | 277 | 3.2 | 8.0 | 0.00 | 0.00 | 0.00 | 34 | |
| 20260507115625 | 17 | 248 | 1.6 | 6.4 | 0.00 | 0.00 | 0.00 | 37 | |
| 20260507115125 | 17 | 215 | 3.2 | 9.7 | 0.00 | 0.00 | 0.00 | 37 | |
| 20260507114625 | 17 | 215 | 3.2 | 11.3 | 0.00 | 0.00 | 0.00 | 35 | |
| 20260507114124 | 18 | 245 | 1.6 | 6.4 | 0.00 | 0.00 | 0.00 | 36 | |
| 20260507113624 | 17 | 266 | 3.2 | 9.7 | 0.00 | 0.00 | 0.00 | 38 | |
| 20260507113124 | 17 | 260 | 3.2 | 9.7 | 0.00 | 0.00 | 0.00 | 37 | |
| 20260507112624 | 16 | 263 | 3.2 | 8.0 | 0.00 | 0.00 | 0.00 | 41 | |
| 20260507112123 | 16 | 25 | 0.0 | 3.2 | 0.00 | 0.00 | 0.00 | 43 | |
| 20260507111623 | 16 | 280 | 1.6 | 6.4 | 0.00 | 0.00 | 0.00 | 45 | |
| 20260507110622 | 15 | 214 | 1.6 | 6.4 | 0.00 | 0.00 | 0.00 | 48 | |
| 20260507110122 | 15 | 0 | 0.0 | 0.0 | 0.00 | 0.00 | 0.00 | 51 | |
| 20260507105621 | 15 | 325 | 1.6 | 8.0 | 0.00 | 0.00 | 0.00 | 50 | |
| 20260507105121 | 15 | 238 | 1.6 | 6.4 | 0.00 | 0.00 | 0.00 | 51 | |
| 20260507104120 | 14 | 300 | 3.2 | 6.4 | 0.00 | 0.00 | 0.00 | 56 | |
| 20260507103620 | 15 | 18 | 0.0 | 1.6 | 0.00 | 0.00 | 0.00 | 60 | |
| 20260507103120 | 14 | 349 | 0.0 | 3.2 | 0.00 | 0.00 | 0.00 | 61 | |
| 20260507102620 | 13 | 158 | 1.6 | 4.8 | 0.00 | 0.00 | 0.00 | 62 | |
| 20260507102119 | 13 | 108 | 1.6 | 6.4 | 0.00 | 0.00 | 0.00 | 63 | |
| 20260507101619 | 12 | 110 | 0.0 | 6.4 | 0.00 | 0.00 | 0.00 | 66 | |
| 20260507101119 | 12 | 158 | 3.2 | 8.0 | 0.00 | 0.00 | 0.00 | 67 | |
| 20260507100618 | 12 | 139 | 1.6 | 8.0 | 0.00 | 0.00 | 0.00 | 67 | |
| 20260507100118 | 12 | 156 | 3.2 | 8.0 | 0.00 | 0.00 | 0.00 | 68 | |
| 20260507095617 | 12 | 173 | 1.6 | 4.8 | 0.00 | 0.00 | 0.00 | 69 | |
| 20260507094615 | 12 | 89 | 0.0 | 3.2 | 0.00 | 0.00 | 0.00 | 73 | |
| 20260507094114 | 11 | 0 | 0.0 | 0.0 | 0.00 | 0.00 | 0.00 | 74 | |
| 20260507093614 | 11 | 0 | 0.0 | 0.0 | 0.00 | 0.00 | 0.00 | 74 | |
| 20260507093114 | 11 | 0 | 0.0 | 0.0 | 0.00 | 0.00 | 0.00 | 75 | |
| 20260507092614 | 11 | 0 | 0.0 | 0.0 | 0.00 | 0.00 | 0.00 | 77 | |
| 20260507092113 | 11 | 145 | 0.0 | 0.0 | 0.00 | 0.00 | 0.00 | 78 | |
| 20260507091613 | 11 | 0 | 0.0 | 0.0 | 0.00 | 0.00 | 0.00 | 79 | |
| 20260507091113 | 10 | 97 | 0.0 | 4.8 | 0.00 | 0.00 | 0.00 | 80 | |
| 20260507090612 | 10 | 79 | 0.0 | 3.2 | 0.00 | 0.00 | 0.00 | 81 | |
| 20260507090112 | 9 | 0 | 0.0 | 0.0 | 0.00 | 0.00 | 0.00 | 82 | |
| 20260507085612 | 10 | 0 | 0.0 | 0.0 | 0.00 | 0.00 | 0.00 | 82 | |
| 20260507085112 | 10 | 0 | 0.0 | 0.0 | 0.00 | 0.00 | 0.00 | 83 | |
| 20260507084611 | 10 | 0 | 0.0 | 0.0 | 0.00 | 0.00 | 0.00 | 83 | |
| 20260507084111 | 10 | 0 | 0.0 | 0.0 | 0.00 | 0.00 | 0.00 | 84 | |
| 20260507083611 | 8 | 0 | 0.0 | 0.0 | 0.00 | 0.00 | 0.00 | 84 | |
| 20260507083110 | 8 | 167 | 0.0 | 4.8 | 0.00 | 0.00 | 0.00 | 85 | |
| 20260507082610 | 8 | 150 | 3.2 | 8.0 | 0.00 | 0.00 | 0.00 | 85 | |
| 20260507081610 | 8 | 148 | 1.6 | 6.4 | 0.00 | 0.00 | 0.00 | 86 | |
| 20260507081110 | 8 | 114 | 1.6 | 4.8 | 0.00 | 0.00 | 0.00 | 86 | |
| 20260507080609 | 8 | 160 | 3.2 | 8.0 | 0.00 | 0.00 | 0.00 | 86 | |
| 20260507080109 | 8 | 0 | 0.0 | 0.0 | 0.00 | 0.00 | 0.00 | 87 | |
| 20260507075609 | 8 | 181 | 1.6 | 6.4 | 0.00 | 0.00 | 0.00 | 88 | |
| 20260507075108 | 7 | 136 | 1.6 | 6.4 | 0.00 | 0.00 | 0.00 | 88 | |
| 20260507074608 | 7 | 150 | 3.2 | 6.4 | 0.00 | 0.00 | 0.00 | 88 | |
| 20260507074108 | 7 | 0 | 0.0 | 0.0 | 0.00 | 0.00 | 0.00 | 89 | |
| 20260507073607 | 7 | 0 | 0.0 | 0.0 | 0.00 | 0.00 | 0.00 | 90 | |
| 20260507073107 | 7 | 166 | 1.6 | 4.8 | 0.00 | 0.00 | 0.00 | 90 | |
| 20260507072607 | 7 | 145 | 1.6 | 6.4 | 0.00 | 0.00 | 0.00 | 90 | |
| 20260507072107 | 7 | 152 | 1.6 | 6.4 | 0.00 | 0.00 | 0.00 | 90 | |
| 20260507071606 | 7 | 0 | 0.0 | 0.0 | 0.00 | 0.00 | 0.00 | 91 | |
| 20260507071106 | 7 | 0 | 0.0 | 0.0 | 0.00 | 0.00 | 0.00 | 91 | |
| 20260507070605 | 7 | 103 | 0.0 | 1.6 | 0.00 | 0.00 | 0.00 | 92 | |
| 20260507070105 | 7 | 0 | 0.0 | 0.0 | 0.00 | 0.00 | 0.00 | 92 | |
| 20260507065605 | 7 | 114 | 0.0 | 1.6 | 0.00 | 0.00 | 0.00 | 92 | |
| 20260507065105 | 6 | 0 | 0.0 | 0.0 | 0.00 | 0.00 | 0.00 | 93 | |
| 20260507064604 | 6 | 0 | 0.0 | 0.0 | 0.00 | 0.00 | 0.00 | 93 | |
| 20260507064104 | 6 | 0 | 0.0 | 0.0 | 0.00 | 0.00 | 0.00 | 93 | |
| 20260507063604 | 6 | 113 | 0.0 | 0.0 | 0.00 | 0.00 | 0.00 | 93 | |
| 20260507063104 | 6 | 0 | 0.0 | 0.0 | 0.00 | 0.00 | 0.00 | 93 | |
| 20260507062603 | 6 | 0 | 0.0 | 0.0 | 0.00 | 0.00 | 0.00 | 94 | |
| 20260507062103 | 6 | 113 | 0.0 | 3.2 | 0.00 | 0.00 | 0.00 | 94 | |
| 20260507061603 | 6 | 0 | 0.0 | 0.0 | 0.00 | 0.00 | 0.00 | 94 | |
| 20260507061102 | 6 | 0 | 0.0 | 0.0 | 0.00 | 0.00 | 0.00 | 94 | |
| 20260507060602 | 6 | 128 | 0.0 | 6.4 | 0.00 | 0.00 | 0.00 | 94 | |
| 20260507055601 | 5 | 0 | 0.0 | 0.0 | 0.00 | 0.00 | 0.00 | 94 | |
| 20260507055101 | 5 | 0 | 0.0 | 0.0 | 0.00 | 0.00 | 0.00 | 94 | |
| 20260507054601 | 5 | 0 | 0.0 | 0.0 | 0.00 | 0.00 | 0.00 | 94 | |
| 20260507054101 | 5 | 156 | 1.6 | 6.4 | 0.00 | 0.00 | 0.00 | 94 | |
| 20260507053600 | 5 | 127 | 0.0 | 1.6 | 0.00 | 0.00 | 0.00 | 94 | |
| 20260507053100 | 5 | 149 | 0.0 | 4.8 | 0.00 | 0.00 | 0.00 | 94 | |
| 20260507052600 | 5 | 155 | 1.6 | 9.7 | 0.00 | 0.00 | 0.00 | 94 | |
| 20260507052100 | 5 | 155 | 3.2 | 8.0 | 0.00 | 0.00 | 0.00 | 94 | |
| 20260507051559 | 5 | 177 | 0.0 | 4.8 | 0.00 | 0.00 | 0.00 | 94 | |
| 20260507051058 | 5 | 0 | 0.0 | 0.0 | 0.00 | 0.00 | 0.00 | 93 | |
| 20260507050558 | 5 | 125 | 1.6 | 8.0 | 0.00 | 0.00 | 0.00 | 93 | |
| 20260507050058 | 5 | 143 | 0.0 | 8.0 | 0.00 | 0.00 | 0.00 | 93 | |
| 20260507045558 | 5 | 138 | 0.0 | 6.4 | 0.00 | 0.00 | 0.00 | 93 | |
| 20260507045057 | 5 | 179 | 1.6 | 6.4 | 0.00 | 0.00 | 0.00 | 93 | |
| 20260507044557 | 5 | 138 | 1.6 | 8.0 | 0.00 | 0.00 | 0.00 | 93 | |
| 20260507044057 | 5 | 141 | 1.6 | 4.8 | 0.00 | 0.00 | 0.00 | 92 | |
| 20260507043556 | 5 | 139 | 1.6 | 6.4 | 0.00 | 0.00 | 0.00 | 92 | |
| 20260507043056 | 6 | 132 | 1.6 | 9.7 | 0.00 | 0.00 | 0.00 | 92 | |
| 20260507042556 | 5 | 150 | 3.2 | 9.7 | 0.00 | 0.00 | 0.00 | 92 | |
| 20260507042056 | 5 | 176 | 0.0 | 4.8 | 0.00 | 0.00 | 0.00 | 92 | |
| 20260507041555 | 5 | 0 | 0.0 | 0.0 | 0.00 | 0.00 | 0.00 | 92 | |
| 20260507041055 | 6 | 131 | 0.0 | 0.0 | 0.00 | 0.00 | 0.00 | 92 | |
| 20260507040054 | 6 | 163 | 0.0 | 4.8 | 0.00 | 0.00 | 0.00 | 92 | |
| 20260507035054 | 5 | 129 | 0.0 | 4.8 | 0.00 | 0.00 | 0.00 | 91 | |
| 20260507034554 | 5 | 156 | 0.0 | 6.4 | 0.00 | 0.00 | 0.00 | 91 | |
| 20260507034053 | 5 | 0 | 0.0 | 0.0 | 0.00 | 0.00 | 0.00 | 91 | |
| 20260507033553 | 5 | 0 | 0.0 | 0.0 | 0.00 | 0.00 | 0.00 | 91 | |
| 20260507033053 | 5 | 0 | 0.0 | 0.0 | 0.00 | 0.00 | 0.00 | 91 | |
| 20260507032553 | 5 | 170 | 0.0 | 6.4 | 0.00 | 0.00 | 0.00 | 91 | |
| 20260507032052 | 6 | 146 | 0.0 | 6.4 | 0.00 | 0.00 | 0.00 | 91 | |
| 20260507031050 | 6 | 141 | 3.2 | 9.7 | 0.00 | 0.00 | 0.00 | 90 | |
| 20260507030549 | 6 | 143 | 3.2 | 8.0 | 0.00 | 0.00 | 0.00 | 90 | |
| 20260507025049 | 6 | 142 | 1.6 | 6.4 | 0.00 | 0.00 | 0.00 | 90 | |
| 20260507024548 | 6 | 152 | 0.0 | 6.4 | 0.00 | 0.00 | 0.00 | 90 | |
| 20260507024048 | 6 | 145 | 0.0 | 6.4 | 0.00 | 0.00 | 0.00 | 90 | |
| 20260507023548 | 6 | 118 | 0.0 | 6.4 | 0.00 | 0.00 | 0.00 | 90 | |
| 20260507023047 | 6 | 152 | 3.2 | 8.0 | 0.00 | 0.00 | 0.00 | 90 | |
| 20260507022547 | 6 | 148 | 4.8 | 9.7 | 0.00 | 0.00 | 0.00 | 90 | |
| 20260507022047 | 6 | 160 | 4.8 | 9.7 | 0.00 | 0.00 | 0.00 | 90 | |
| 20260507021547 | 6 | 142 | 6.4 | 11.3 | 0.00 | 0.00 | 0.00 | 90 | |
| 20260507021046 | 6 | 165 | 4.8 | 9.7 | 0.00 | 0.00 | 0.00 | 89 | |
| 20260507020546 | 6 | 139 | 1.6 | 8.0 | 0.00 | 0.00 | 0.00 | 88 | |
| 20260507020046 | 6 | 141 | 3.2 | 8.0 | 0.00 | 0.00 | 0.00 | 88 | |
| 20260507015546 | 6 | 148 | 1.6 | 9.7 | 0.00 | 0.00 | 0.00 | 88 | |
| 20260507015045 | 6 | 152 | 1.6 | 6.4 | 0.00 | 0.00 | 0.00 | 87 | |
| 20260507014545 | 6 | 141 | 0.0 | 6.4 | 0.00 | 0.00 | 0.00 | 87 | |
| 20260507014045 | 6 | 96 | 1.6 | 4.8 | 0.00 | 0.00 | 0.00 | 87 | |
| 20260507013544 | 6 | 0 | 0.0 | 0.0 | 0.00 | 0.00 | 0.00 | 86 | |
| 20260507013044 | 6 | 129 | 0.0 | 6.4 | 0.00 | 0.00 | 0.00 | 86 | |
| 20260507012544 | 6 | 146 | 1.6 | 6.4 | 0.00 | 0.00 | 0.00 | 86 | |
| 20260507012044 | 6 | 156 | 1.6 | 9.7 | 0.00 | 0.00 | 0.00 | 86 | |
| 20260507011543 | 7 | 0 | 0.0 | 0.0 | 0.00 | 0.00 | 0.00 | 86 | |
| 20260507011043 | 7 | 0 | 0.0 | 0.0 | 0.00 | 0.00 | 0.00 | 85 | |
| 20260507010543 | 7 | 0 | 0.0 | 0.0 | 0.00 | 0.00 | 0.00 | 85 | |
| 20260507010042 | 6 | 0 | 0.0 | 0.0 | 0.00 | 0.00 | 0.00 | 85 |